When you browse on this site, cookies collect data to enhance your experience and personalize the content and advertising you see.
Visit our Privacy Policy to learn more. By continuing to use the site, you agree to this use of cookies and data.
  • In Austria
  • List of Countries
  • For 7 days
  • Water Temperature
  • Satellite Maps
  • Weather Map
  • News
  • Weather Widgets
  • user-avatar
    Login

    Hourly Weather Mezhlese

    Today, 23 July, Tuesday

    Time Temperature Precipitation Wind Pressure Humidity
    00:00 +14°C° 0 mm 3 mps 750 mmHg 95%
    01:00 +14°C° 0 mm 3 mps 750 mmHg 95%
    02:00 +13°C° 0 mm 3 mps 750 mmHg 97%
    03:00 +13°C° 0 mm 3 mps 750 mmHg 97%
    04:00 +12°C° 0 mm 3 mps 749 mmHg 97%
    05:00 +12°C° 0 mm 4 mps 749 mmHg 97%
    06:00 +13°C° 0 mm 4 mps 749 mmHg 96%
    07:00 +13°C° 0 mm 4 mps 749 mmHg 95%
    08:00 +14°C° 0 mm 4 mps 749 mmHg 94%
    09:00 +15°C° 0 mm 4 mps 749 mmHg 90%
    10:00 +17°C° 0 mm 4 mps 749 mmHg 86%
    11:00 +18°C° 0 mm 4 mps 749 mmHg 82%
    12:00 +18°C° 0.1 mm 4 mps 749 mmHg 80%
    13:00 +19°C° 0.1 mm 5 mps 749 mmHg 77%
    14:00 +20°C° 0.1 mm 5 mps 748 mmHg 75%
    15:00 +20°C° 0 mm 4 mps 748 mmHg 76%
    16:00 +20°C° 0 mm 3 mps 748 mmHg 76%
    17:00 +20°C° 0 mm 3 mps 749 mmHg 77%
    18:00 +20°C° 0.2 mm 3 mps 748 mmHg 81%
    19:00 +19°C° 0.2 mm 3 mps 748 mmHg 85%
    20:00 +18°C° 0.2 mm 3 mps 748 mmHg 90%
    21:00 +18°C° 0.1 mm 3 mps 748 mmHg 91%
    22:00 +17°C° 0.1 mm 3 mps 748 mmHg 93%
    23:00 +16°C° 0.1 mm 3 mps 748 mmHg 95%

    Tomorrow, 24 July, Wednesday

    Time Temperature Precipitation Wind Pressure Humidity
    00:00 +16°C° 0 mm 3 mps 748 mmHg 95%
    01:00 +16°C° 0 mm 3 mps 748 mmHg 96%
    02:00 +14°C° 0 mm 3 mps 748 mmHg 97%
    03:00 +14°C° 0 mm 3 mps 748 mmHg 97%
    04:00 +14°C° 0 mm 3 mps 748 mmHg 97%
    05:00 +14°C° 0 mm 3 mps 748 mmHg 97%
    06:00 +16°C° 0 mm 3 mps 748 mmHg 94%
    07:00 +18°C° 0 mm 3 mps 748 mmHg 90%
    08:00 +19°C° 0 mm 3 mps 748 mmHg 87%
    09:00 +21°C° 0.1 mm 3 mps 748 mmHg 78%
    10:00 +22°C° 0.1 mm 4 mps 748 mmHg 69%
    11:00 +25°C° 0.1 mm 4 mps 749 mmHg 60%
    12:00 +25°C° 0.1 mm 4 mps 748 mmHg 59%
    13:00 +26°C° 0.1 mm 4 mps 748 mmHg 58%
    14:00 +26°C° 0.1 mm 4 mps 748 mmHg 56%
    15:00 +26°C° 0 mm 3 mps 748 mmHg 58%
    16:00 +26°C° 0 mm 3 mps 748 mmHg 60%
    17:00 +26°C° 0 mm 3 mps 748 mmHg 62%
    18:00 +24°C° 0.1 mm 2 mps 748 mmHg 68%
    19:00 +21°C° 0.1 mm 2 mps 749 mmHg 75%
    20:00 +19°C° 0.1 mm 2 mps 749 mmHg 82%
    21:00 +18°C° 0 mm 2 mps 749 mmHg 85%
    22:00 +17°C° 0 mm 2 mps 749 mmHg 88%
    23:00 +16°C° 0 mm 2 mps 750 mmHg 91%

    Day after tomorrow, 25 July, Thursday

    Time Temperature Precipitation Wind Pressure Humidity
    00:00 +16°C° 0 mm 2 mps 750 mmHg 91%
    01:00 +15°C° 0 mm 2 mps 750 mmHg 91%
    02:00 +15°C° 0 mm 2 mps 750 mmHg 91%
    03:00 +15°C° 0 mm 2 mps 750 mmHg 91%
    04:00 +15°C° 0 mm 2 mps 750 mmHg 91%
    05:00 +14°C° 0 mm 2 mps 750 mmHg 90%
    06:00 +16°C° 0 mm 2 mps 750 mmHg 85%
    07:00 +18°C° 0 mm 2 mps 750 mmHg 80%
    08:00 +20°C° 0 mm 2 mps 750 mmHg 74%
    09:00 +21°C° 0.2 mm 2 mps 750 mmHg 71%
    10:00 +22°C° 0.2 mm 3 mps 750 mmHg 67%
    11:00 +25°C° 0.2 mm 3 mps 750 mmHg 64%
    12:00 +25°C° 0.7 mm 3 mps 749 mmHg 65%
    13:00 +25°C° 0.7 mm 3 mps 749 mmHg 66%
    14:00 +25°C° 0.7 mm 4 mps 749 mmHg 67%
    15:00 +23°C° 0.8 mm 4 mps 748 mmHg 71%
    16:00 +24°C° 0.8 mm 3 mps 748 mmHg 75%
    17:00 +22°C° 0.8 mm 3 mps 748 mmHg 79%
    18:00 +21°C° 0.4 mm 3 mps 748 mmHg 83%
    19:00 +20°C° 0.4 mm 2 mps 747 mmHg 86%
    20:00 +19°C° 0.4 mm 2 mps 747 mmHg 90%
    21:00 +18°C° 0 mm 2 mps 747 mmHg 92%
    22:00 +17°C° 0 mm 2 mps 747 mmHg 93%
    23:00 +16°C° 0 mm 2 mps 747 mmHg 95%

    26 July, Friday

    Time Temperature Precipitation Wind Pressure Humidity
    00:00 +16°C° 0 mm 2 mps 747 mmHg 96%
    01:00 +15°C° 0 mm 2 mps 747 mmHg 96%
    02:00 +15°C° 0 mm 2 mps 747 mmHg 97%
    03:00 +14°C° 0 mm 2 mps 747 mmHg 97%
    04:00 +14°C° 0 mm 2 mps 747 mmHg 97%
    05:00 +14°C° 0 mm 2 mps 747 mmHg 97%
    06:00 +14°C° 0 mm 3 mps 747 mmHg 95%
    07:00 +16°C° 0 mm 3 mps 747 mmHg 93%
    08:00 +17°C° 0 mm 3 mps 747 mmHg 90%
    09:00 +18°C° 0.1 mm 3 mps 747 mmHg 87%
    10:00 +19°C° 0.1 mm 4 mps 747 mmHg 84%
    11:00 +19°C° 0.1 mm 4 mps 747 mmHg 82%
    12:00 +20°C° 0.1 mm 4 mps 747 mmHg 78%
    13:00 +22°C° 0.1 mm 4 mps 747 mmHg 74%
    14:00 +23°C° 0.1 mm 4 mps 747 mmHg 70%
    15:00 +22°C° 0.5 mm 4 mps 746 mmHg 75%
    16:00 +22°C° 0.5 mm 4 mps 746 mmHg 79%
    17:00 +21°C° 0.5 mm 5 mps 746 mmHg 83%
    18:00 +20°C° 0.6 mm 4 mps 746 mmHg 86%
    19:00 +20°C° 0.6 mm 4 mps 746 mmHg 88%
    20:00 +19°C° 0.6 mm 4 mps 746 mmHg 91%
    21:00 +18°C° 0.3 mm 4 mps 746 mmHg 93%
    22:00 +18°C° 0.3 mm 4 mps 746 mmHg 95%
    23:00 +17°C° 0.3 mm 4 mps 746 mmHg 97%

    27 July, Saturday

    Time Temperature Precipitation Wind Pressure Humidity
    00:00 +17°C° 0 mm 3 mps 746 mmHg 97%
    01:00 +17°C° 0 mm 3 mps 746 mmHg 98%
    02:00 +16°C° 0 mm 2 mps 746 mmHg 98%
    03:00 +17°C° 0.2 mm 2 mps 746 mmHg 98%
    04:00 +17°C° 0.2 mm 2 mps 746 mmHg 98%
    05:00 +17°C° 0.2 mm 2 mps 746 mmHg 98%
    06:00 +17°C° 0.3 mm 2 mps 745 mmHg 98%
    07:00 +17°C° 0.3 mm 2 mps 745 mmHg 97%
    08:00 +17°C° 0.3 mm 2 mps 745 mmHg 97%
    09:00 +19°C° 0.3 mm 3 mps 745 mmHg 94%
    10:00 +20°C° 0.3 mm 3 mps 745 mmHg 91%
    11:00 +21°C° 0.3 mm 4 mps 745 mmHg 87%
    12:00 +22°C° 0.9 mm 4 mps 745 mmHg 86%
    13:00 +23°C° 0.9 mm 5 mps 745 mmHg 84%
    14:00 +23°C° 0.9 mm 5 mps 744 mmHg 83%
    15:00 +23°C° 0.8 mm 5 mps 744 mmHg 84%
    16:00 +23°C° 0.8 mm 5 mps 744 mmHg 85%
    17:00 +23°C° 0.8 mm 5 mps 744 mmHg 87%
    18:00 +22°C° 0.5 mm 4 mps 744 mmHg 89%
    19:00 +21°C° 0.5 mm 4 mps 744 mmHg 91%
    20:00 +20°C° 0.5 mm 3 mps 744 mmHg 94%
    21:00 +19°C° 0 mm 3 mps 744 mmHg 95%
    22:00 +19°C° 0 mm 3 mps 744 mmHg 96%
    23:00 +18°C° 0 mm 2 mps 744 mmHg 97%

    28 July, Sunday

    Time Temperature Precipitation Wind Pressure Humidity
    00:00 +18°C° 0 mm 2 mps 744 mmHg 97%
    01:00 +18°C° 0 mm 2 mps 744 mmHg 97%
    02:00 +17°C° 0 mm 2 mps 744 mmHg 97%
    03:00 +17°C° 0 mm 3 mps 744 mmHg 97%
    04:00 +17°C° 0 mm 3 mps 744 mmHg 97%
    05:00 +17°C° 0 mm 3 mps 744 mmHg 97%
    06:00 +18°C° 0 mm 3 mps 744 mmHg 95%
    07:00 +20°C° 0 mm 3 mps 745 mmHg 92%
    08:00 +21°C° 0 mm 3 mps 745 mmHg 89%
    09:00 +23°C° 0.3 mm 4 mps 745 mmHg 82%
    10:00 +25°C° 0.3 mm 4 mps 745 mmHg 74%
    11:00 +27°C° 0.3 mm 5 mps 745 mmHg 67%
    12:00 +27°C° 0.1 mm 5 mps 744 mmHg 65%
    13:00 +28°C° 0.1 mm 4 mps 744 mmHg 63%
    14:00 +28°C° 0.1 mm 4 mps 744 mmHg 62%
    15:00 +28°C° 0.4 mm 4 mps 744 mmHg 66%
    16:00 +27°C° 0.4 mm 4 mps 744 mmHg 70%
    17:00 +27°C° 0.4 mm 3 mps 744 mmHg 75%
    18:00 +25°C° 0.1 mm 3 mps 744 mmHg 79%
    19:00 +24°C° 0.1 mm 3 mps 744 mmHg 83%
    20:00 +21°C° 0.1 mm 3 mps 744 mmHg 88%
    21:00 +20°C° 0 mm 3 mps 744 mmHg 89%
    22:00 +19°C° 0 mm 3 mps 744 mmHg 91%
    23:00 +18°C° 0 mm 3 mps 745 mmHg 92%
    Show more